Bangor, ME

2:33 PM EST on December 05, 2016 (GMT -0500)
Bangor International

Weather History for KBGR - August, 2011

Change the Weather History Date:

Sunday, August 21, 2011

  Actual Average Record
Temperature  
Mean Temperature 73 °F 66 °F  
Max Temperature 82 °F 78 °F 95 °F (1937)
Min Temperature 64 °F 55 °F 38 °F (1940)
Degree Days  
Heating Degree Days 0 1  
Month to date heating degree days 5 21  
Since 1 June heating degree days 123 151  
Since 1 July heating degree days 9 44  
Cooling Degree Days 8 3  
Month to date cooling degree days 70 77  
Year to date cooling degree days 292 267  
Since 1 June cooling degree days 284 261  
Growing Degree Days 22 (Base 50)    
Moisture  
Dew Point 65 °F    
Average Humidity 81    
Maximum Humidity 100    
Minimum Humidity 62    
Precipitation  
Precipitation 0.05 in 0.09 in 1.11 in (1962)
Month to date precipitation 4.48 2.08  
Year to date precipitation 26.49 25.35  
Snow  
Snow 0.00 in 0.00 in 0.00 in (2002)
Month to date snowfall 0.0 0.0  
Since 1 June snowfall 0.0 0.0  
Since 1 July snowfall 0.0 0.0  
Snow Depth 0.00 in    
Sea Level Pressure  
Sea Level Pressure 29.91 in    
Wind  
Wind Speed 7 mph (South)    
Max Wind Speed 21 mph    
Max Gust Speed 29 mph    
Visibility 6 miles    
Events Fog , Rain    
T = Trace of Precipitation, MM = Missing Value Source: NWS Daily Summary

Daily Weather History Graph

Daily Weather History Graph

Search for Another Location

Airport or City:

Trip Planner

Search our weather history database for the weather conditions in past years. The results will help you decide how hot, cold, wet, or windy it might be!

Date:

Astronomy

Aug. 21, 2011 Rise Set
Actual Time 5:44 AM EDT 7:31 PM EDT
Civil Twilight 5:12 AM EDT 8:03 PM EDT
Nautical Twilight 4:34 AM EDT 8:40 PM EDT
Astronomical Twilight 3:53 AM EDT 9:22 PM EDT
Moon 10:55 PM EDT (8/21) 1:41 PM EDT (8/21)
Length of Visible Light 14h 50m
Length of Day
13h 47m
Waning Gibbous, 52% of the Moon is Illuminated
Aug 21
Waning Gibbous
Aug 21
Last Quarter
Aug 28
New
Sep 4
First Quarter
Sep 12
Full

Hourly Weather History & Observations

Time (EDT) Temp. Heat Index Dew Point Humidity Pressure Visibility Wind Dir Wind Speed Gust Speed Precip Events Conditions
12:53 AM 66.9 °F - 64.9 °F 93% 29.95 in 10.0 mi South 4.6 mph - N/A   Mostly Cloudy
1:53 AM 66.0 °F - 64.9 °F 96% 29.93 in 10.0 mi SE 6.9 mph - N/A   Overcast
2:19 AM 64.4 °F - 64.4 °F 100% 29.93 in 2.0 mi South 5.8 mph - N/A   Overcast
2:53 AM 64.9 °F - 64.9 °F 100% 29.93 in 1.0 mi SSE 5.8 mph - N/A   Overcast
3:53 AM 64.9 °F - 64.9 °F 100% 29.93 in 0.8 mi South 4.6 mph - N/A   Overcast
4:24 AM 64.4 °F - 64.4 °F 100% 29.94 in 0.8 mi South 4.6 mph - N/A   Overcast
4:53 AM 64.9 °F - 64.0 °F 97% 29.94 in 0.5 mi SSW 4.6 mph - N/A Fog Fog
5:24 AM 64.4 °F - 64.4 °F 100% 29.95 in 0.5 mi South 5.8 mph - N/A Fog Fog
5:44 AM 64.4 °F - 64.4 °F 100% 29.96 in 0.5 mi SSW 4.6 mph - N/A Fog Fog
5:53 AM 64.9 °F - 64.0 °F 97% 29.96 in 0.5 mi SSW 3.5 mph - N/A Fog Fog
6:04 AM 64.4 °F - 64.4 °F 100% 29.96 in 0.5 mi SSW 4.6 mph - N/A Fog Fog
6:26 AM 64.4 °F - 64.4 °F 100% 29.95 in 0.5 mi SSE 5.8 mph - N/A Fog Fog
6:37 AM 64.4 °F - 64.4 °F 100% 29.95 in 0.5 mi SSE 5.8 mph - N/A Fog Fog
6:53 AM 64.9 °F - 64.9 °F 100% 29.95 in 0.5 mi South 4.6 mph - N/A Fog Fog
7:38 AM 64.4 °F - 64.4 °F 100% 29.97 in 0.2 mi SSW 3.5 mph - N/A Fog Fog
7:53 AM 64.9 °F - 64.9 °F 100% 29.96 in 0.2 mi South 4.6 mph - N/A Fog Fog
7:55 AM 64.4 °F - 64.4 °F 100% 29.97 in 0.2 mi South 5.8 mph - N/A Fog Fog
8:06 AM 64.4 °F - 64.4 °F 100% 29.97 in 0.2 mi South 4.6 mph - N/A Fog Fog
8:46 AM 66.2 °F - 64.4 °F 94% 29.96 in 0.5 mi South 4.6 mph - N/A Fog Fog
8:53 AM 66.0 °F - 64.9 °F 96% 29.95 in 0.5 mi South 4.6 mph - N/A Fog Fog
9:08 AM 66.2 °F - 66.2 °F 100% 29.96 in 1.0 mi South 4.6 mph - N/A   Overcast
9:30 AM 66.2 °F - 66.2 °F 100% 29.97 in 5.0 mi SSW 5.8 mph - N/A   Overcast
9:43 AM 66.2 °F - 66.2 °F 100% 29.96 in 7.0 mi SSW 5.8 mph - N/A   Overcast
9:53 AM 69.1 °F - 66.0 °F 90% 29.96 in 10.0 mi South 6.9 mph - N/A   Overcast
10:41 AM 71.6 °F - 66.2 °F 83% 29.96 in 10.0 mi SSW 8.1 mph - N/A   Overcast
10:53 AM 71.1 °F - 66.0 °F 84% 29.95 in 10.0 mi SSW 6.9 mph - N/A   Overcast
11:53 AM 75.0 °F - 66.9 °F 76% 29.93 in 10.0 mi South 9.2 mph - N/A   Mostly Cloudy
12:53 PM 78.1 °F - 66.9 °F 68% 29.91 in 10.0 mi South 8.1 mph - N/A   Mostly Cloudy
1:53 PM 81.0 °F 83.8 °F 68.0 °F 65% 29.88 in 10.0 mi South 11.5 mph - N/A   Mostly Cloudy
2:53 PM 80.6 °F 82.7 °F 66.2 °F 61% 29.86 in 10.0 mi South 16.1 mph - N/A   Scattered Clouds
3:53 PM 79.0 °F - 64.0 °F 60% 29.84 in 10.0 mi South 18.4 mph 23.0 mph N/A   Mostly Cloudy
4:53 PM 75.0 °F - 66.0 °F 73% 29.85 in 10.0 mi South 18.4 mph 25.3 mph N/A   Overcast
5:50 PM 71.6 °F - 66.2 °F 83% 29.85 in 10.0 mi South 16.1 mph 21.9 mph N/A   Overcast
5:53 PM 72.0 °F - 66.9 °F 84% 29.84 in 10.0 mi South 13.8 mph 21.9 mph N/A   Overcast
6:44 PM 69.8 °F - 66.2 °F 88% 29.83 in 10.0 mi South 13.8 mph 21.9 mph N/A   Overcast
6:53 PM 70.0 °F - 66.0 °F 87% 29.82 in 10.0 mi South 12.7 mph 21.9 mph N/A   Overcast
7:53 PM 69.1 °F - 66.0 °F 90% 29.83 in 10.0 mi South 13.8 mph 23.0 mph N/A   Overcast
8:53 PM 68.0 °F - 66.0 °F 93% 29.81 in 10.0 mi SSE 10.4 mph - 0.00 in Rain Light Rain
9:53 PM 68.0 °F - 66.9 °F 96% 29.81 in 10.0 mi South 9.2 mph - 0.00 in Rain Light Rain
10:33 PM 68.0 °F - 66.2 °F 94% 29.80 in 10.0 mi South 10.4 mph - 0.01 in   Overcast
10:53 PM 68.0 °F - 64.9 °F 90% 29.79 in 10.0 mi SSE 10.4 mph - N/A Rain Light Rain
11:00 PM 68.0 °F - 64.4 °F 88% 29.80 in 10.0 mi SSE 8.1 mph - 0.00 in Rain Light Rain
11:53 PM 69.1 °F - 66.9 °F 93% 29.77 in 10.0 mi South 13.8 mph 25.3 mph 0.02 in Rain Light Rain